Regional Weather Roundup
Issued by NWS Wakefield, VA

Home | Current Version | Previous Version | Graphics & Text | Print | Product List | Glossary On
Versions: 1 2 3 4 5 6 7 8 9 10 11 12 13 14 15 16 17 18 19 20 21 22 23 24 25 26 27
000
ASUS41 KAKQ 170315
RWRAKQ

REGIONAL WEATHER ROUNDUP
NATIONAL WEATHER SERVICE WAKEFIELD VA
1000 PM EST THU NOV 16 2017

Note: "fair" indicates few or no clouds below 12,000 feet with no
significant weather and/or obstructions to visibility. * = Denotes
station may not report precipitation (e.g., rain,snow,etc.),
thunder or fog.

VAZ042-051-052>054-056-170400-
NORTHERN VIRGINIA

CITY           SKY/WX    TMP DP  RH WIND       PRES   REMARKS
WASH NATIONAL  MOCLDY    47  31  53 NW14G22   30.11R
DULLES         MOCLDY    44  32  62 NW12      30.11R
FORT BELVOIR   CLOUDY    46  30  53 NW13      30.11R
QUANTICO       NOT AVBL
FREDERICKSBRG* CLEAR     44  33  65 NW7       30.12R
STAFFORD*      CLEAR     40  31  70 NW12      30.16R
WARRENTON      NOT AVBL
CULPEPER*      CLEAR     44  29  54 NW12      30.13R
MANASSAS*      CLOUDY    45  31  58 VRB5      30.13R
LEESBURG*      CLOUDY    45  34  65 NW17G25   30.11S
WINCHESTER     CLOUDY    41  30  65 NW18G24   30.10S
FRONT ROYAL*   CLOUDY    41  30  65 W6        30.11S
LURAY*         CLOUDY    41  30  65 N5        30.12R
$$

VAZ048-049-060>072-079>083-170400-
CENTRAL AND SOUTH CENTRAL VIRGINIA

CITY           SKY/WX    TMP DP  RH WIND       PRES   REMARKS
RICHMOND       CLEAR     47  31  53 N16       30.09R
CHESTERFIELD*  NOT AVBL
PETERSBURG*    CLEAR     41  18  39 N5        30.08R
HANOVER        CLEAR     45  31  58 VRB6      30.11R
TAPPAHANNOCK*    N/A    N/A N/A N/A MISG        N/A
QUINTON*       FAIR      47  32  55 N8        30.08R
CHARLOTTSVILLE CLEAR     45  29  53 VRB6G18   30.11R
GORDONSVILLE*  CLEAR     44  30  59 NE3       30.11R
ORANGE*        CLEAR     41  30  65 NE3       30.11R
LOUISA*        CLEAR     42  29  61 N6        30.15R
BUMPASS*       FAIR      44  29  56 N6        30.11R
FARMVILLE*     CLEAR     48  32  54 CALM      30.09R
CREWE*         FAIR      47  30  51 NW3       30.08R
FORT PICKETT*  NOT AVBL
CHASE CITY*    FAIR      48  29  49 CALM      30.09R
CLARKSVILLE*   FAIR      50  30  46 N5        30.08R
SOUTH HILL*    CLEAR     49  31  49 NW3       30.13R
LAWRENCEVILLE* FAIR      44  32  63 NW5       30.07R
EMPORIA*       CLEAR     37  36  93 NW3       30.09R
$$

VAZ088>098-170400-
SOUTHEAST VIRGINIA

CITY           SKY/WX    TMP DP  RH WIND       PRES   REMARKS
NORFOLK        CLEAR     55  37  50 N16G25    30.04R
VIRGINIA BEACH NOT AVBL
NORFOLK NAVAL  NOT AVBL
WEST POINT*    CLEAR     48  31  52 N7        30.10R
SALUDA*        FAIR      49  35  58 NW12      30.07R
NEWPORT NEWS   CLEAR     49  35  58 N7        30.06R
LANGLEY AFB    CLEAR     51  35  54 N16G26    30.05R
FORT EUSTIS    CLEAR     51  34  51 N13G20    30.04R
WILLIAMSBURG*  CLEAR     48  36  61 N6        30.08R
HR EXEC AP*    NOT AVBL
FRANKLIN*      CLEAR     46  36  67 N5        30.07R
US460-WAKEFLD  CLEAR     49  36  61 VRB5      30.07R
$$

VAZ020-022-025-037-045-170400-
WEST CENTRAL AND SOUTHWEST VIRGINIA

CITY           SKY/WX    TMP DP  RH WIND       PRES   REMARKS
STAUNTON*      CLEAR     38  27  64 N7        30.14R
WAYNESBORO*    CLEAR     38  27  64 NW6       30.11R
HOT SPRINGS VA PTCLDY    29  25  84 NW20G28   30.05R WCI  16
LYNCHBURG      CLEAR     40  28  62 CALM      30.12R
DANVILLE       CLEAR     48  31  51 N8        30.10R
SOUTH BOSTON*  FAIR      47  27  46 NW8       30.09S
MARTINSVILLE   CLEAR     46  27  47 NW7       30.13R
ROANOKE        CLEAR     45  29  53 N5        30.15R
BLACKSBURG     CLEAR     40  32  73 NW8G16    30.16R
DUBLIN*        CLEAR     43  31  61 NW12      30.13S
MARION*        CLEAR     42  31  65 W6        30.17R
HILLSVILLE*    CLEAR     42  28  57 NW10      30.11R
RICHLANDS*     MOCLDY    38  34  85 CALM      30.17R
WISE*          CLOUDY    37  37 100 CALM      30.18R
ABINGDON*      CLEAR     43  33  68 CALM      30.17R
$$

MDZ021>025-VAZ099-100-170400-
SOUTHERN MARYLAND AND THE DELMARVA PENINSULA

CITY           SKY/WX    TMP DP  RH WIND       PRES   REMARKS
PATUXENT RIVER NOT AVBL
BAY BRIDGE APT CLEAR     46  32  57 NW20G28   30.07S
LEONARDTOWN    CLEAR     45  32  61 NW3       30.10R
DOVER          CLEAR     45  32  60 W15G23    30.02R
GEORGETOWN     CLEAR     47  31  53 NW10G16   30.04R
EASTON         CLEAR     46  30  52 N14G21    30.10R
CAMBRIDGE        N/A    N/A N/A N/A MISG        N/A
SALISBURY      CLEAR     46  32  58 NW14G24   30.04R
OCEAN CITY     CLEAR     47  33  58 NW16G25   30.03R
WALLOPS ISLAND CLEAR     48  34  58 NW10G20   30.04R
ACCOMACK*      CLEAR     49  37  61 N14G25    30.05R
$$

NCZ012>017-030>032-170400-
NORTH CENTRAL AND EASTERN NORTH CAROLINA

CITY           SKY/WX    TMP DP  RH WIND       PRES   REMARKS
ROANOKE RAPIDS FAIR      48  34  57 NW3       30.06R
RALEIGH        CLEAR     43  37  79 CALM      30.09R
ELIZABETH CITY CLEAR     47  42  83 W7        30.02R
AHOSKIE*       CLEAR     42  40  92 CALM      30.06R
EDENTON*       CLEAR     46  43  90 CALM      30.04R
CURRITUCK*     CLEAR     44  42  92 CALM      30.02R
KILL DEVIL HLS CLEAR     53  46  79 CALM      30.00S
MANTEO         CLEAR     54  46  73 NW3       30.02R
CAPE HATTERAS  CLEAR     55  50  83 NW3       30.02S
TARBORO*       NOT AVBL
GOLDSBORO      CLEAR     47  42  85 CALM      30.04R
WASHINGTON     CLEAR     44  43  96 CALM      30.05R
GREENVILLE     FOG       41  41 100 CALM      30.06S VSB 1/2
NEW BERN       CLEAR     43  43 100 CALM      30.05S
WILMINGTON     CLEAR     47  45  93 CALM      30.06S
$$

VAZ048-170400-
ELSEWHERE

CITY           SKY/WX    TMP DP  RH WIND       PRES   REMARKS
HARRISBURG PA  MOCLDY    45  31  58 W15       30.02R
BALTIMORE      MOCLDY    45  30  55 W17       30.07R
ANNAPOLIS      NOT AVBL
ANDREWS AFB    CLOUDY    45  29  52 NW17G25   30.08R
PHILADELPHIA   CLEAR     46  29  51 W15       30.00R
HENDERSON NC   CLEAR     46  27  47 CALM      30.08R
GREENSBORO     CLEAR     51  26  37 NW6       30.09R
ROCKY MOUNT    CLEAR     43  41  93 CALM      30.07R
$$

VAZ100-170400-
MARINE

STATION/POSITION TIME  TEMP    WIND        PRES    WAVE   SWELL
                       AIR SEA DIR/SP/G            HT/PER HT/PER
                 (UTC) (F)     (DEG/KT/KT) (MB)    (FT/S) (FT/S)
BRANDYWINE LGT   0242   49     320/ 26/ 33 1016.1R
CAPE MAY NJ      0242   48 53  320/ 14/ 25 1015.4R
LEWES DE         0242   49 53  310/ 21/ 25 1016.4R
15NM E FENWICK I 0250   52 59  300/ 25/ 31 1015.6R   6/ 6   3/11
OCEAN-CITY-INLET 0242   49 55  340/ 13/ 16 1016.9R
WACHAPREAGUE VA  0242   50 53  350/  8/ 18 1017.1R
THOMAS POINT MD  0300   47 55  310/ 18/ 22   N/A
GOOSES REEF MD   0300   48 55  320/ 17/ 21 1010.4    2/ 3
COVE POINT MD    0242   48     340/ 19/ 27 1018.7R
SOLOMONS ISLAND  0242   47 55  340/ 12/ 17 1018.2R
BISHOPS HEAD MD  0242   44 50  330/ 16/ 27 1017.9R
PINEY POINT MD   0248          360/ 17/ 22   N/A
POTOMAC MD       0300   49 56  350/ 16/ 21 1017.3    2/ 3
CAMBRIDGE MD     0242   47 52              1018.6R
LEWISETTA VA     0242   49 52  350/ 15/ 23 1018.2R
RAPPAHANNOCK LGT 0248          350/ 30/ 32 1017.7R
STINGRAY PT      0300   51 55  360/ 14/ 17 1018.3    3/ 3
YORK RVR RNG VA  0242   53     360/ 22/ 27 1017.9R
YORKTOWN VA      0236   52 56  340/ 10/ 13 1017.5R
JAMESTOWN VA     0300      55  360/  8/ 14   N/A     0
DOMINION TERM VA 0236   53      50/  2/  5 1017.4R
KIPTOPEKE VA     0248      56   10/ 16/ 20   N/A
CAPE HENRY VA    0236   56     350/ 25/ 29   N/A
WILLOUBY STN VA  0236   54     360/ 19/ 25 1016.9R
S CRANEY ISL VA  0236   56      10/ 13/ 19 1016.7R
CAPE HENRY BUOY  0300      61                N/A     3/12   2/12
1ST LANDING BUOY 0300   55 57   20/ 21/ 25 1017.1    2/ 3
CAPE CHARLES BUO 0251      59                N/A     3/12   2/12
64NM E OF VA BCH 0250   61 61  300/ 10/ 12 1015.6R   5/12   5/12
DUCK PIER NC     0236   55 58  270/  7/  8 1015.6R
44100 DUCK FRF   0245      62                N/A     4/12   3/12
44056 DUCK FRF   0300      59                N/A     3/12   2/12
OREGON INLET NC  0236   55 58  280/  4/  5 1016.0S
HATTERAS NC      0236   59 60  310/  8/  9 1016.4S
DIAMOND SHLS NC  0300   62     320/ 14/ 16 1016.7
CAPE LOOKOUT NC  0300   59     320/  6/  7 1017.4S
$$




USA.gov is the U.S. government's official web portal to all federal, state and local government web resources and services.